Location: Newark
(37.3186°N, 13.6631°E)
Time: 04:46:59
(UTC+00:00)

ISS - Visible Passes

Search period start: 15 November 2019 00:00
Search period end: 25 November 2019 00:00
Orbit: 412 x 421 km, 51.6° (Epoch: 15 November)

Date Brightness Start Highest point End Pass type
(mag) Time Alt. Az. Time Alt. Az. Time Alt. Az.
15 Nov -0.6 03:16:47 12° SE 03:16:47 12° SE 03:17:04 10° SE visible
18 Nov -1.1 17:27:53 10° SSE 17:28:04 11° SSE 17:28:04 11° SSE visible
19 Nov -0.9 18:14:29 10° SW 18:15:08 15° SW 18:15:08 15° SW visible
20 Nov -3.2 17:26:17 10° SSW 17:29:10 44° SSE 17:29:10 44° SSE visible
21 Nov -2.4 16:38:24 10° S 16:41:10 24° SE 16:43:06 15° E visible
21 Nov -1.0 18:14:46 10° W 18:16:01 19° W 18:16:01 19° W visible
22 Nov -3.3 17:26:01 10° WSW 17:29:18 54° NW 17:29:50 47° N visible
23 Nov -3.8 16:37:32 10° SW 16:40:52 81° SE 16:43:34 15° NE visible
23 Nov -0.7 18:15:49 10° WNW 18:16:29 13° NW 18:16:29 13° NW visible
24 Nov -1.9 17:26:37 10° W 17:29:19 22° NNW 17:30:08 20° N visible
